28-03-2022, 00:00:05,     10,    0.0,    3.4,   0.00,   0.00, 1023.0,   98.6, -999.0
28-03-2022, 00:00:15,     10,    0.0,    3.5,   0.00,   0.00, 1023.0,   98.7, -999.0
28-03-2022, 00:00:25,     11,    0.0,    3.5,   0.00,   0.00, 1023.0,   98.7, -999.0
28-03-2022, 00:00:35,     10,    0.0,    3.4,   0.00,   0.00, 1023.0,   98.6, -999.0
28-03-2022, 00:00:44,     10,    0.0,    3.5,   0.00,   0.00, 1023.0,   98.7, -999.0
28-03-2022, 00:00:54,     11,    0.0,    3.5,   0.00,   0.00, 1023.0,   98.8, -999.0
28-03-2022, 00:01:05,     11,    0.0,    3.5,   0.00,   0.00, 1023.0,   98.8, -999.0
28-03-2022, 00:01:14,     10,    0.0,    3.5,   0.00,   0.00, 1023.0,   98.8, -999.0
28-03-2022, 00:01:24,     11,    0.0,    3.6,   0.00,   0.00, 1023.0,   98.7, -999.0
28-03-2022, 00:01:34,     10,    0.0,    3.5,   0.00,   0.00, 1023.0,   98.6, -999.0
28-03-2022, 00:01:44,     10,    0.0,    3.5,   0.00,   0.00, 1023.0,   98.7, -999.0
28-03-2022, 00:01:54,     10,    0.0,    3.5,   0.00,   0.00, 1023.1,   98.7, -999.0
28-03-2022, 00:02:04,     10,    0.0,    3.5,   0.00,   0.00, 1023.0,   98.7, -999.0
28-03-2022, 00:02:14,     10,    0.0,    3.5,   0.00,   0.00, 1023.1,   98.7, -999.0
28-03-2022, 00:02:24,     10,    0.0,    3.5,   0.00,   0.00, 1023.0,   98.8, -999.0
28-03-2022, 00:02:34,     10,    0.0,    3.5,   0.00,   0.00, 1023.0,   98.7, -999.0
28-03-2022, 00:02:44,     10,    0.0,    3.4,   0.00,   0.00, 1023.0,   98.8, -999.0
28-03-2022, 00:02:54,     10,    0.0,    3.4,   0.00,   0.00, 1023.0,   98.7, -999.0
28-03-2022, 00:03:14,     10,    0.0,    3.4,   0.00,   0.00, 1023.0,   98.7, -999.0
28-03-2022, 00:03:24,     10,    0.0,    3.5,   0.00,   0.00, 1023.0,   98.7, -999.0
28-03-2022, 00:03:34,     11,    0.0,    3.5,   0.00,   0.00, 1023.0,   98.8, -999.0
28-03-2022, 00:03:44,     10,    0.0,    3.5,   0.00,   0.00, 1023.0,   98.7, -999.0
28-03-2022, 00:03:55,     10,    0.0,    3.5,   0.00,   0.00, 1023.0,   98.8, -999.0
28-03-2022, 00:04:04,     10,    0.0,    3.4,   0.00,   0.00, 1023.0,   98.7, -999.0
28-03-2022, 00:04:14,     10,    0.0,    3.4,   0.00,   0.00, 1023.0,   98.7, -999.0
28-03-2022, 00:04:23,     10,    0.0,    3.4,   0.00,   0.00, 1023.0,   98.6, -999.0
28-03-2022, 00:04:33,     10,    0.0,    3.3,   0.00,   0.00, 1023.0,   98.8, -999.0
28-03-2022, 00:04:44,     10,    0.0,    3.4,   0.00,   0.00, 1023.0,   98.7, -999.0
28-03-2022, 00:04:53,     10,    0.0,    3.5,   0.00,   0.00, 1023.0,   98.7, -999.0
28-03-2022, 00:05:03,     10,    0.0,    3.4,   0.00,   0.00, 1023.0,   98.8, -999.0
28-03-2022, 00:05:13,     10,    0.0,    3.5,   0.00,   0.00, 1023.0,   98.7, -999.0
28-03-2022, 00:05:23,     10,    0.0,    3.4,   0.00,   0.00, 1023.0,   98.7, -999.0
28-03-2022, 00:05:33,     10,    0.0,    3.5,   0.00,   0.00, 1023.0,   98.6, -999.0
28-03-2022, 00:05:43,     10,    0.0,    3.5,   0.00,   0.00, 1023.0,   98.8, -999.0
28-03-2022, 00:05:53,     10,    0.0,    3.4,   0.00,   0.00, 1023.0,   98.7, -999.0
28-03-2022, 00:06:03,     10,    0.0,    3.4,   0.00,   0.00, 1023.0,   98.7, -999.0
28-03-2022, 00:06:13,     10,    0.0,    3.4,   0.00,   0.00, 1023.0,   98.7, -999.0
28-03-2022, 00:06:23,     10,    0.0,    3.4,   0.00,   0.00, 1023.0,   98.7, -999.0
28-03-2022, 00:06:33,     10,    0.0,    3.5,   0.00,   0.00, 1023.0,   98.7, -999.0
28-03-2022, 00:06:43,     10,    0.0,    3.5,   0.00,   0.00, 1023.0,   98.7, -999.0
28-03-2022, 00:06:53,     10,    0.0,    3.5,   0.00,   0.00, 1023.0,   98.7, -999.0
28-03-2022, 00:07:03,     10,    0.0,    3.6,   0.00,   0.00, 1023.0,   98.6, -999.0
28-03-2022, 00:07:13,     10,    0.0,    3.5,   0.00,   0.00, 1023.0,   98.7, -999.0
28-03-2022, 00:07:23,     11,    0.0,    3.6,   0.00,   0.00, 1023.0,   98.7, -999.0
28-03-2022, 00:07:33,     10,    0.0,    3.4,   0.00,   0.00, 1023.0,   98.7, -999.0
28-03-2022, 00:07:42,     10,    0.0,    3.4,   0.00,   0.00, 1023.0,   98.7, -999.0
28-03-2022, 00:07:53,     10,    0.0,    3.5,   0.00,   0.00, 1023.0,   98.7, -999.0
28-03-2022, 00:08:03,     10,    0.0,    3.5,   0.00,   0.00, 1023.0,   98.6, -999.0
28-03-2022, 00:08:12,     10,    0.0,    3.5,   0.00,   0.00, 1023.0,   98.8, -999.0
28-03-2022, 00:08:22,     10,    0.0,    3.5,   0.00,   0.00, 1023.0,   98.8, -999.0
28-03-2022, 00:08:32,     11,    0.0,    3.6,   0.00,   0.00, 1023.0,   98.7, -999.0
28-03-2022, 00:08:42,     10,    0.0,    3.6,   0.00,   0.00, 1022.9,   98.6, -999.0
28-03-2022, 00:08:52,     10,    0.0,    3.5,   0.00,   0.00, 1023.0,   98.6, -999.0
28-03-2022, 00:09:02,     10,    0.0,    3.5,   0.00,   0.00, 1022.9,   98.7, -999.0
28-03-2022, 00:09:12,     10,    0.0,    3.6,   0.00,   0.00, 1023.0,   98.7, -999.0
28-03-2022, 00:09:22,     10,    0.0,    3.5,   0.00,   0.00, 1022.9,   98.6, -999.0
28-03-2022, 00:09:32,     11,    0.0,    3.6,   0.00,   0.00, 1022.9,   98.7, -999.0
28-03-2022, 00:09:42,     10,    0.0,    3.5,   0.00,   0.00, 1022.9,   98.9, -999.0
28-03-2022, 00:09:52,     10,    0.0,    3.6,   0.00,   0.00, 1023.0,   98.8, -999.0
28-03-2022, 00:10:02,     10,    0.0,    3.5,   0.00,   0.00, 1022.9,   98.6, -999.0
28-03-2022, 00:10:12,     10,    0.0,    3.6,   0.00,   0.00, 1023.0,   98.7, -999.0
28-03-2022, 00:10:22,     10,    0.0,    3.6,   0.00,   0.00, 1022.9,   98.7, -999.0
28-03-2022, 00:10:32,     10,    0.0,    3.6,   0.00,   0.00, 1022.9,   98.7, -999.0
28-03-2022, 00:10:42,     10,    0.0,    3.6,   0.00,   0.00, 1022.9,   98.7, -999.0
28-03-2022, 00:10:51,     10,    0.0,    3.6,   0.00,   0.00, 1022.9,   98.7, -999.0
28-03-2022, 00:11:02,     11,    0.0,    3.6,   0.00,   0.00, 1022.9,   98.7, -999.0
28-03-2022, 00:11:12,     10,    0.0,    3.6,   0.00,   0.00, 1022.9,   98.8, -999.0
28-03-2022, 00:11:21,     10,    0.0,    3.6,   0.00,   0.00, 1022.9,   98.7, -999.0
28-03-2022, 00:11:31,     11,    0.0,    3.6,   0.00,   0.00, 1022.9,   98.7, -999.0
28-03-2022, 00:11:42,     10,    0.0,    3.6,   0.00,   0.00, 1022.9,   98.7, -999.0
28-03-2022, 00:11:51,     10,    0.0,    3.5,   0.00,   0.00, 1022.9,   98.8, -999.0
28-03-2022, 00:12:01,     10,    0.0,    3.5,   0.00,   0.00, 1022.9,   98.7, -999.0
28-03-2022, 00:12:12,     10,    0.0,    3.4,   0.00,   0.00, 1022.9,   98.7, -999.0
28-03-2022, 00:12:21,     10,    0.0,    3.5,   0.00,   0.00, 1022.9,   98.8, -999.0
28-03-2022, 00:12:31,     10,    0.0,    3.4,   0.00,   0.00, 1022.9,   98.7, -999.0
28-03-2022, 00:12:41,     11,    0.0,    3.5,   0.00,   0.00, 1022.9,   98.7, -999.0
28-03-2022, 00:12:51,     11,    0.0,    3.4,   0.00,   0.00, 1022.9,   98.7, -999.0
28-03-2022, 00:13:01,     10,    0.0,    3.5,   0.00,   0.00, 1022.9,   98.6, -999.0
28-03-2022, 00:13:11,     10,    0.0,    3.5,   0.00,   0.00, 1022.9,   98.7, -999.0
28-03-2022, 00:13:21,     10,    0.0,    3.5,   0.00,   0.00, 1022.9,   98.6, -999.0
28-03-2022, 00:13:31,     11,    0.0,    3.4,   0.00,   0.00, 1022.9,   98.6, -999.0
28-03-2022, 00:13:41,     10,    0.0,    3.4,   0.00,   0.00, 1022.9,   98.7, -999.0
28-03-2022, 00:13:51,     11,    0.0,    3.5,   0.00,   0.00, 1022.9,   98.6, -999.0
28-03-2022, 00:14:01,     10,    0.0,    3.4,   0.00,   0.00, 1022.9,   98.6, -999.0
28-03-2022, 00:14:11,     10,    0.0,    3.4,   0.00,   0.00, 1022.9,   98.8, -999.0
28-03-2022, 00:14:21,     10,    0.0,    3.5,   0.00,   0.00, 1022.9,   98.7, -999.0
28-03-2022, 00:14:31,     10,    0.0,    3.5,   0.00,   0.00, 1022.9,   98.7, -999.0
28-03-2022, 00:14:41,     10,    0.0,    3.5,   0.00,   0.00, 1022.9,   98.7, -999.0
28-03-2022, 00:14:51,     11,    0.0,    3.5,   0.00,   0.00, 1022.9,   98.8, -999.0
28-03-2022, 00:15:00,     10,    0.0,    3.5,   0.00,   0.00, 1022.9,   98.8, -999.0
28-03-2022, 00:15:10,     10,    0.0,    3.4,   0.00,   0.00, 1022.9,   98.6, -999.0
28-03-2022, 00:15:21,     10,    0.0,    3.5,   0.00,   0.00, 1022.9,   98.7, -999.0
28-03-2022, 00:15:30,     10,    0.0,    3.5,   0.00,   0.00, 1022.9,   98.6, -999.0
28-03-2022, 00:15:40,     10,    0.0,    3.4,   0.00,   0.00, 1022.9,   98.7, -999.0
28-03-2022, 00:15:50,     10,    0.0,    3.5,   0.00,   0.00, 1022.9,   98.8, -999.0
28-03-2022, 00:16:00,     10,    0.0,    3.4,   0.00,   0.00, 1022.9,   98.6, -999.0
28-03-2022, 00:16:10,     10,    0.0,    3.3,   0.00,   0.00, 1022.9,   98.7, -999.0
28-03-2022, 00:16:20,     10,    0.0,    3.4,   0.00,   0.00, 1022.9,   98.7, -999.0
28-03-2022, 00:16:30,     10,    0.0,    3.4,   0.00,   0.00, 1022.9,   98.7, -999.0
28-03-2022, 00:16:40,     10,    0.0,    3.3,   0.00,   0.00, 1022.9,   98.7, -999.0
28-03-2022, 00:16:50,     11,    0.0,    3.3,   0.00,   0.00, 1022.9,   98.6, -999.0
28-03-2022, 00:17:00,     10,    0.0,    3.3,   0.00,   0.00, 1022.9,   98.6, -999.0
28-03-2022, 00:17:10,     10,    0.0,    3.3,   0.00,   0.00, 1022.9,   98.6, -999.0
28-03-2022, 00:17:20,     10,    0.0,    3.3,   0.00,   0.00, 1022.9,   98.7, -999.0
28-03-2022, 00:17:30,     10,    0.0,    3.3,   0.00,   0.00, 1022.9,   98.6, -999.0
28-03-2022, 00:17:40,     10,    0.0,    3.4,   0.00,   0.00, 1022.9,   98.7, -999.0
28-03-2022, 00:17:50,     10,    0.0,    3.4,   0.00,   0.00, 1022.9,   98.7, -999.0
28-03-2022, 00:18:00,     10,    0.0,    3.3,   0.00,   0.00, 1022.9,   98.7, -999.0
28-03-2022, 00:18:10,     10,    0.0,    3.3,   0.00,   0.00, 1022.9,   98.6, -999.0
28-03-2022, 00:18:19,     10,    0.0,    3.4,   0.00,   0.00, 1022.9,   98.7, -999.0
28-03-2022, 00:18:30,     10,    0.0,    3.3,   0.00,   0.00, 1022.9,   98.6, -999.0
28-03-2022, 00:18:40,     11,    0.0,    3.4,   0.00,   0.00, 1022.9,   98.8, -999.0
28-03-2022, 00:18:49,     10,    0.0,    3.4,   0.00,   0.00, 1022.8,   98.7, -999.0
28-03-2022, 00:18:59,     10,    0.0,    3.4,   0.00,   0.00, 1022.9,   98.7, -999.0
28-03-2022, 00:19:09,     10,    0.0,    3.4,   0.00,   0.00, 1022.9,   98.7, -999.0
28-03-2022, 00:19:19,     10,    0.0,    3.4,   0.00,   0.00, 1022.9,   98.7, -999.0
28-03-2022, 00:19:29,     10,    0.0,    3.4,   0.00,   0.00, 1022.9,   98.7, -999.0
28-03-2022, 00:19:39,     10,    0.0,    3.4,   0.00,   0.00, 1022.9,   98.7, -999.0
28-03-2022, 00:19:49,     10,    0.0,    3.3,   0.00,   0.00, 1022.9,   98.7, -999.0
28-03-2022, 00:19:59,     10,    0.0,    3.3,   0.00,   0.00, 1022.9,   98.7, -999.0
28-03-2022, 00:20:09,     11,    0.0,    3.3,   0.00,   0.00, 1022.9,   98.6, -999.0
28-03-2022, 00:20:19,     10,    0.0,    3.4,   0.00,   0.00, 1022.9,   98.6, -999.0
28-03-2022, 00:20:29,     11,    0.0,    3.3,   0.00,   0.00, 1022.9,   98.7, -999.0
28-03-2022, 00:20:39,     10,    0.0,    3.3,   0.00,   0.00, 1022.9,   98.8, -999.0
28-03-2022, 00:20:49,     10,    0.0,    3.3,   0.00,   0.00, 1022.9,   98.7, -999.0
28-03-2022, 00:20:59,     10,    0.0,    3.3,   0.00,   0.00, 1022.9,   98.8, -999.0
28-03-2022, 00:21:09,      9,    0.0,    3.3,   0.00,   0.00, 1022.9,   98.7, -999.0
28-03-2022, 00:21:19,     10,    0.0,    3.2,   0.00,   0.00, 1022.8,   98.7, -999.0
28-03-2022, 00:21:28,     10,    0.0,    3.2,   0.00,   0.00, 1022.9,   98.7, -999.0
28-03-2022, 00:21:39,     10,    0.0,    3.2,   0.00,   0.00, 1022.8,   98.7, -999.0
28-03-2022, 00:21:49,     10,    0.0,    3.2,   0.00,   0.00, 1022.9,   98.6, -999.0
28-03-2022, 00:21:58,     10,    0.0,    3.2,   0.00,   0.00, 1022.9,   98.7, -999.0
28-03-2022, 00:22:09,     10,    0.0,    3.1,   0.00,   0.00, 1022.9,   98.7, -999.0
28-03-2022, 00:22:19,     10,    0.0,    3.1,   0.00,   0.00, 1022.9,   98.8, -999.0
28-03-2022, 00:22:28,     10,    0.0,    3.2,   0.00,   0.00, 1022.8,   98.6, -999.0
28-03-2022, 00:22:38,     10,    0.0,    3.2,   0.00,   0.00, 1022.8,   98.7, -999.0
28-03-2022, 00:22:48,     10,    0.0,    3.2,   0.00,   0.00, 1022.8,   98.7, -999.0
28-03-2022, 00:22:58,     10,    0.0,    3.1,   0.00,   0.00, 1022.9,   98.7, -999.0
28-03-2022, 00:23:08,     10,    0.0,    3.1,   0.00,   0.00, 1022.8,   98.7, -999.0
28-03-2022, 00:23:18,     10,    0.0,    3.1,   0.00,   0.00, 1022.9,   98.6, -999.0
28-03-2022, 00:23:28,     10,    0.0,    3.0,   0.00,   0.00, 1022.8,   98.8, -999.0
28-03-2022, 00:23:38,     10,    0.0,    2.9,   0.00,   0.00, 1022.8,   98.8, -999.0
28-03-2022, 00:23:48,     10,    0.0,    3.0,   0.00,   0.00, 1022.8,   98.8, -999.0
28-03-2022, 00:23:58,     10,    0.0,    3.1,   0.00,   0.00, 1022.8,   98.6, -999.0
28-03-2022, 00:24:08,     10,    0.0,    3.1,   0.00,   0.00, 1022.8,   98.7, -999.0
28-03-2022, 00:24:18,     15,    0.0,    3.0,   0.00,   0.00, 1022.8,   98.8, -999.0
28-03-2022, 00:24:28,     10,    0.0,    3.0,   0.00,   0.00, 1022.8,   98.7, -999.0
28-03-2022, 00:24:38,     10,    0.0,    3.0,   0.00,   0.00, 1022.8,   98.7, -999.0
28-03-2022, 00:24:49,     10,    0.0,    3.0,   0.00,   0.00, 1022.8,   98.6, -999.0
28-03-2022, 00:24:58,     10,    0.0,    3.0,   0.00,   0.00, 1022.8,   98.7, -999.0
28-03-2022, 00:25:07,     10,    0.0,    3.0,   0.00,   0.00, 1022.8,   98.6, -999.0
28-03-2022, 00:25:18,     10,    0.0,    3.0,   0.00,   0.00, 1022.8,   98.7, -999.0
28-03-2022, 00:25:28,     10,    0.0,    3.1,   0.00,   0.00, 1022.8,   98.6, -999.0
28-03-2022, 00:25:37,     10,    0.0,    3.1,   0.00,   0.00, 1022.8,   98.6, -999.0
28-03-2022, 00:25:47,     10,    0.0,    3.1,   0.00,   0.00, 1022.8,   98.7, -999.0
28-03-2022, 00:25:58,     10,    0.0,    3.0,   0.00,   0.00, 1022.8,   98.7, -999.0
28-03-2022, 00:26:07,     10,    0.0,    3.0,   0.00,   0.00, 1022.8,   98.6, -999.0
28-03-2022, 00:26:17,     11,    0.0,    3.0,   0.00,   0.00, 1022.8,   98.6, -999.0
28-03-2022, 00:26:27,     10,    0.0,    3.0,   0.00,   0.00, 1022.8,   98.7, -999.0
28-03-2022, 00:26:37,     10,    0.0,    2.9,   0.00,   0.00, 1022.8,   98.8, -999.0
28-03-2022, 00:26:47,     10,    0.0,    3.0,   0.00,   0.00, 1022.7,   98.6, -999.0
28-03-2022, 00:26:57,     10,    0.0,    3.0,   0.00,   0.00, 1022.7,   98.7, -999.0
28-03-2022, 00:27:07,     11,    0.0,    3.0,   0.00,   0.00, 1022.8,   98.8, -999.0
28-03-2022, 00:27:17,     10,    0.0,    3.1,   0.00,   0.00, 1022.8,   98.6, -999.0
28-03-2022, 00:27:27,     10,    0.0,    2.9,   0.00,   0.00, 1022.8,   98.7, -999.0
28-03-2022, 00:27:37,     10,    0.0,    3.0,   0.00,   0.00, 1022.8,   98.8, -999.0
28-03-2022, 00:27:47,     10,    0.0,    3.0,   0.00,   0.00, 1022.8,   98.7, -999.0
28-03-2022, 00:27:57,     10,    0.0,    3.0,   0.00,   0.00, 1022.8,   98.7, -999.0
28-03-2022, 00:28:07,     20,    0.0,    3.1,   0.00,   0.00, 1022.8,   98.8, -999.0
28-03-2022, 00:28:17,     11,    0.0,    3.0,   0.00,   0.00, 1022.8,   98.7, -999.0
28-03-2022, 00:28:27,     10,    0.0,    3.0,   0.00,   0.00, 1022.8,   98.6, -999.0
28-03-2022, 00:28:37,     10,    0.0,    3.1,   0.00,   0.00, 1022.7,   98.7, -999.0
28-03-2022, 00:28:47,     10,    0.0,    3.0,   0.00,   0.00, 1022.7,   98.6, -999.0
28-03-2022, 00:28:56,     10,    0.0,    3.0,   0.00,   0.00, 1022.8,   98.7, -999.0
28-03-2022, 00:29:07,     10,    0.0,    3.0,   0.00,   0.00, 1022.7,   98.8, -999.0
28-03-2022, 00:29:16,     10,    0.0,    2.9,   0.00,   0.00, 1022.8,   98.6, -999.0
28-03-2022, 00:29:26,      9,    0.0,    3.0,   0.00,   0.00, 1022.7,   98.7, -999.0
28-03-2022, 00:29:37,     11,    0.0,    2.9,   0.00,   0.00, 1022.8,   98.7, -999.0
28-03-2022, 00:29:46,     10,    0.0,    2.9,   0.00,   0.00, 1022.8,   98.7, -999.0
28-03-2022, 00:29:56,     10,    0.0,    2.9,   0.00,   0.00, 1022.7,   98.6, -999.0
28-03-2022, 00:30:06,     10,    0.0,    2.8,   0.00,   0.00, 1022.8,   98.7, -999.0
28-03-2022, 00:30:16,     10,    0.0,    2.8,   0.00,   0.00, 1022.7,   98.7, -999.0
28-03-2022, 00:30:26,     10,    0.0,    2.8,   0.00,   0.00, 1022.7,   98.7, -999.0
28-03-2022, 00:30:36,     10,    0.0,    2.9,   0.00,   0.00, 1022.8,   98.7, -999.0
28-03-2022, 00:30:46,     10,    0.0,    2.8,   0.00,   0.00, 1022.8,   98.7, -999.0
28-03-2022, 00:30:56,     13,    0.0,    2.8,   0.00,   0.00, 1022.8,   98.7, -999.0
28-03-2022, 00:31:06,     11,    0.0,    2.7,   0.00,   0.00, 1022.8,   98.7, -999.0
28-03-2022, 00:31:16,     10,    0.0,    2.7,   0.00,   0.00, 1022.7,   98.7, -999.0
28-03-2022, 00:31:26,     10,    0.0,    2.7,   0.00,   0.00, 1022.7,   98.6, -999.0
28-03-2022, 00:31:36,     10,    0.0,    2.7,   0.00,   0.00, 1022.8,   98.6, -999.0
28-03-2022, 00:31:46,     11,    0.0,    2.6,   0.00,   0.00, 1022.7,   98.7, -999.0
28-03-2022, 00:31:56,     10,    0.0,    2.6,   0.00,   0.00, 1022.7,   98.8, -999.0
28-03-2022, 00:32:06,     11,    0.0,    2.6,   0.00,   0.00, 1022.7,   98.6, -999.0
28-03-2022, 00:32:16,     10,    0.0,    2.6,   0.00,   0.00, 1022.8,   98.7, -999.0
28-03-2022, 00:32:26,     10,    0.0,    2.7,   0.00,   0.00, 1022.8,   98.8, -999.0
28-03-2022, 00:32:35,     10,    0.0,    2.6,   0.00,   0.00, 1022.7,   98.8, -999.0
28-03-2022, 00:32:46,     10,    0.0,    2.5,   0.00,   0.00, 1022.7,   98.8, -999.0
28-03-2022, 00:32:55,     11,    0.0,    2.5,   0.00,   0.00, 1022.7,   98.8, -999.0
28-03-2022, 00:33:05,     10,    0.0,    2.5,   0.00,   0.00, 1022.8,   98.8, -999.0
28-03-2022, 00:33:15,     10,    0.0,    2.6,   0.00,   0.00, 1022.7,   98.7, -999.0
28-03-2022, 00:33:25,     11,    0.0,    2.6,   0.00,   0.00, 1022.7,   98.7, -999.0
28-03-2022, 00:33:35,     10,    0.0,    2.5,   0.00,   0.00, 1022.7,   98.6, -999.0
28-03-2022, 00:33:45,     10,    0.0,    2.5,   0.00,   0.00, 1022.7,   98.6, -999.0
28-03-2022, 00:33:55,     10,    0.0,    2.5,   0.00,   0.00, 1022.7,   98.6, -999.0
28-03-2022, 00:34:05,     10,    0.0,    2.5,   0.00,   0.00, 1022.7,   98.7, -999.0
28-03-2022, 00:34:15,     10,    0.0,    2.5,   0.00,   0.00, 1022.7,   98.7, -999.0
28-03-2022, 00:34:25,     10,    0.0,    2.5,   0.00,   0.00, 1022.7,   98.8, -999.0
28-03-2022, 00:34:35,     10,    0.0,    2.4,   0.00,   0.00, 1022.7,   98.8, -999.0
28-03-2022, 00:34:45,     10,    0.0,    2.5,   0.00,   0.00, 1022.7,   98.7, -999.0
28-03-2022, 00:34:55,     10,    0.0,    2.4,   0.00,   0.00, 1022.7,   98.7, -999.0
28-03-2022, 00:35:05,     10,    0.0,    2.5,   0.00,   0.00, 1022.7,   98.7, -999.0
28-03-2022, 00:35:15,     10,    0.0,    2.5,   0.00,   0.00, 1022.7,   98.7, -999.0
28-03-2022, 00:35:25,     11,    0.0,    2.5,   0.00,   0.00, 1022.7,   98.7, -999.0
28-03-2022, 00:35:35,     11,    0.0,    2.5,   0.00,   0.00, 1022.7,   98.8, -999.0
28-03-2022, 00:35:44,     11,    0.0,    2.5,   0.00,   0.00, 1022.7,   98.7, -999.0
28-03-2022, 00:35:55,     10,    0.0,    2.6,   0.00,   0.00, 1022.7,   98.6, -999.0
28-03-2022, 00:36:05,     11,    0.0,    2.5,   0.00,   0.00, 1022.7,   98.6, -999.0
28-03-2022, 00:36:14,     10,    0.0,    2.5,   0.00,   0.00, 1022.7,   98.8, -999.0
28-03-2022, 00:36:25,     10,    0.0,    2.5,   0.00,   0.00, 1022.7,   98.7, -999.0
28-03-2022, 00:36:35,     10,    0.0,    2.3,   0.00,   0.00, 1022.7,   98.8, -999.0
28-03-2022, 00:36:44,     10,    0.0,    2.6,   0.00,   0.00, 1022.7,   98.7, -999.0
28-03-2022, 00:36:54,     10,    0.0,    2.6,   0.00,   0.00, 1022.7,   98.7, -999.0
28-03-2022, 00:37:04,     10,    0.0,    2.6,   0.00,   0.00, 1022.7,   98.8, -999.0
28-03-2022, 00:37:14,     10,    0.0,    2.6,   0.00,   0.00, 1022.7,   98.6, -999.0
28-03-2022, 00:37:24,     10,    0.0,    2.6,   0.00,   0.00, 1022.7,   98.7, -999.0
28-03-2022, 00:37:34,     10,    0.0,    2.5,   0.00,   0.00, 1022.7,   98.7, -999.0
28-03-2022, 00:37:44,     10,    0.0,    2.6,   0.00,   0.00, 1022.7,   98.7, -999.0
28-03-2022, 00:37:54,     12,    0.0,    2.7,   0.00,   0.00, 1022.7,   98.6, -999.0
28-03-2022, 00:38:04,     10,    0.0,    2.6,   0.00,   0.00, 1022.7,   98.9, -999.0
28-03-2022, 00:38:14,     10,    0.0,    2.6,   0.00,   0.00, 1022.7,   98.6, -999.0
28-03-2022, 00:38:24,     10,    0.0,    2.5,   0.00,   0.00, 1022.7,   98.7, -999.0
28-03-2022, 00:38:34,     10,    0.0,    2.5,   0.00,   0.00, 1022.7,   98.8, -999.0
28-03-2022, 00:38:44,     10,    0.0,    2.5,   0.00,   0.00, 1022.7,   98.7, -999.0
28-03-2022, 00:38:54,     10,    0.0,    2.5,   0.00,   0.00, 1022.7,   98.7, -999.0
28-03-2022, 00:39:04,     10,    0.0,    2.5,   0.00,   0.00, 1022.7,   98.7, -999.0
28-03-2022, 00:39:14,     10,    0.0,    2.5,   0.00,   0.00, 1022.7,   98.6, -999.0
28-03-2022, 00:39:23,     10,    0.0,    2.4,   0.00,   0.00, 1022.7,   98.7, -999.0
28-03-2022, 00:39:34,     10,    0.0,    2.4,   0.00,   0.00, 1022.7,   98.6, -999.0
28-03-2022, 00:39:44,     10,    0.0,    2.4,   0.00,   0.00, 1022.7,   98.8, -999.0
28-03-2022, 00:39:53,     10,    0.0,    2.3,   0.00,   0.00, 1022.7,   98.7, -999.0
28-03-2022, 00:40:03,     10,    0.0,    2.4,   0.00,   0.00, 1022.7,   98.7, -999.0
28-03-2022, 00:40:13,     10,    0.0,    2.5,   0.00,   0.00, 1022.7,   98.7, -999.0
28-03-2022, 00:40:23,     10,    0.0,    2.5,   0.00,   0.00, 1022.7,   98.7, -999.0
28-03-2022, 00:40:33,     10,    0.0,    2.4,   0.00,   0.00, 1022.7,   98.8, -999.0
28-03-2022, 00:40:43,     10,    0.0,    2.4,   0.00,   0.00, 1022.7,   98.7, -999.0
28-03-2022, 00:40:53,     10,    0.0,    2.4,   0.00,   0.00, 1022.7,   98.6, -999.0
28-03-2022, 00:41:03,     10,    0.0,    2.5,   0.00,   0.00, 1022.7,   98.8, -999.0
28-03-2022, 00:41:13,     10,    0.0,    2.4,   0.00,   0.00, 1022.7,   98.7, -999.0
28-03-2022, 00:41:23,     10,    0.0,    2.4,   0.00,   0.00, 1022.7,   98.7, -999.0
28-03-2022, 00:41:33,     10,    0.0,    2.4,   0.00,   0.00, 1022.7,   98.7, -999.0
28-03-2022, 00:41:43,     10,    0.0,    2.4,   0.00,   0.00, 1022.7,   98.7, -999.0
28-03-2022, 00:41:53,     10,    0.0,    2.4,   0.00,   0.00, 1022.7,   98.7, -999.0
28-03-2022, 00:42:03,     10,    0.0,    2.4,   0.00,   0.00, 1022.7,   98.7, -999.0
28-03-2022, 00:42:13,     10,    0.0,    2.4,   0.00,   0.00, 1022.7,   98.7, -999.0
28-03-2022, 00:42:23,     10,    0.0,    2.4,   0.00,   0.00, 1022.7,   98.7, -999.0
28-03-2022, 00:42:32,     10,    0.0,    2.3,   0.00,   0.00, 1022.7,   98.7, -999.0
28-03-2022, 00:42:43,     10,    0.0,    2.4,   0.00,   0.00, 1022.7,   98.7, -999.0
28-03-2022, 00:42:53,     10,    0.0,    2.4,   0.00,   0.00, 1022.7,   98.6, -999.0
28-03-2022, 00:43:02,     10,    0.0,    2.4,   0.00,   0.00, 1022.7,   98.7, -999.0
28-03-2022, 00:43:13,     11,    0.0,    2.3,   0.00,   0.00, 1022.7,   98.7, -999.0
28-03-2022, 00:43:23,     10,    0.0,    2.3,   0.00,   0.00, 1022.7,   98.8, -999.0
28-03-2022, 00:43:32,     11,    0.0,    2.3,   0.00,   0.00, 1022.7,   98.8, -999.0
28-03-2022, 00:43:42,     10,    0.0,    2.3,   0.00,   0.00, 1022.7,   98.7, -999.0
28-03-2022, 00:43:53,     10,    0.0,    2.2,   0.00,   0.00, 1022.7,   98.6, -999.0
28-03-2022, 00:44:02,     10,    0.0,    2.3,   0.00,   0.00, 1022.7,   98.7, -999.0
28-03-2022, 00:44:12,     11,    0.0,    2.3,   0.00,   0.00, 1022.7,   98.6, -999.0
28-03-2022, 00:44:22,     10,    0.0,    2.3,   0.00,   0.00, 1022.7,   98.8, -999.0
28-03-2022, 00:44:32,     10,    0.0,    2.3,   0.00,   0.00, 1022.7,   98.6, -999.0
28-03-2022, 00:44:42,     10,    0.0,    2.3,   0.00,   0.00, 1022.7,   98.7, -999.0
28-03-2022, 00:44:52,     10,    0.0,    2.3,   0.00,   0.00, 1022.7,   98.7, -999.0
28-03-2022, 00:45:02,     10,    0.0,    2.3,   0.00,   0.00, 1022.7,   98.8, -999.0
28-03-2022, 00:45:12,     10,    0.0,    2.3,   0.00,   0.00, 1022.7,   98.7, -999.0
28-03-2022, 00:45:22,     10,    0.0,    2.4,   0.00,   0.00, 1022.7,   98.7, -999.0
28-03-2022, 00:45:32,     10,    0.0,    2.4,   0.00,   0.00, 1022.8,   98.6, -999.0
28-03-2022, 00:45:42,     10,    0.0,    2.3,   0.00,   0.00, 1022.7,   98.8, -999.0
28-03-2022, 00:45:52,     10,    0.0,    2.3,   0.00,   0.00, 1022.7,   98.7, -999.0
28-03-2022, 00:46:02,     10,    0.0,    2.3,   0.00,   0.00, 1022.7,   98.7, -999.0
28-03-2022, 00:46:11,     10,    0.0,    2.4,   0.00,   0.00, 1022.7,   98.8, -999.0
28-03-2022, 00:46:22,     10,    0.0,    2.4,   0.00,   0.00, 1022.7,   98.6, -999.0
28-03-2022, 00:46:32,     10,    0.0,    2.3,   0.00,   0.00, 1022.7,   98.8, -999.0
28-03-2022, 00:46:41,     10,    0.0,    2.3,   0.00,   0.00, 1022.7,   98.6, -999.0
28-03-2022, 00:46:51,     10,    0.0,    2.4,   0.00,   0.00, 1022.7,   98.7, -999.0